sat.trackr.live / text

‹ back to catalog

STARLINK-37281

NORAD 68773 · 2026-086H

PAYLOAD ACTIVE UNKNOWN

§ Identity

Operator
Country
US
Launch date
2026-04-19
Launch site
AFWTR
Launch vehicle
Mass (kg)
RCS (m²)

Purposes: comms

External: N2YO · Heavens-Above · Gunter

§ Orbital elements

Epoch: 2026-05-25T04:00:03.998880Z

Period
92.93 min
Inclination
97.2852°
Eccentricity
0.0001331
Mean motion
15.49537597 rev/d
Perigee alt
417.2 km
Apogee alt
419.0 km
Semi-major
6,796.2 km
B*
-1.1151e-2
RAAN
181.9154°
Arg perigee
78.3699°
Mean anomaly
20.4216°
Rev number
607

§ Raw data

STARLINK-372811 68773U 26086H   26145.16671295 -.00571486  00000+0 -11151-1 0  99902 68773  97.2852 181.9154 0001331  78.3699  20.4216 15.49537597  6078

JSON: /api/v1/satellites/68773 · /tle

For live sub-satellite position, see the globe view (requires WebGL).

§ Visibility from observer

Set your observer location to see the next 7 days of passes ≥ 10°. The values pass through the URL so the page stays shareable.

No JS? Fill the form by hand. The geolocation button needs JavaScript.